Location: Stanford
(52.2833°N, 2.4333°W)
Time: 23:02:02
(UTC+00:00)

H-2A R/B - Pass Details

Date: 22 January 2021
Orbit: 734 x 836 km, 98.2° (Epoch: 01 March)

Event Time Altitude Azimuth Distance (km) Brightness Sun altitude
Rises 18:49:03 0° 166° (SSE) 3,182 5.1 -19.5°
Reaches altitude 10° 18:51:18 10° 168° (SSE) 2,273 4.4 -19.8°
Maximum altitude 18:56:19 81° 255° (WSW) 784 2.0 -20.6°
Drops below altitude 10° 19:01:31 10° 344° (NNW) 2,353 4.6 -21.4°
Sets 19:03:53 0° 345° (NNW) 3,302 5.4 -21.7°
